Overview Statistics Trail Chart Weather Telemetry Raw packets
 

This is the latest recevied weather packets stored in our database for station/object N5ATR. If no packets are shown the sender has not sent any weather packets the latest 10 day(s).

<< 1 2 3 4 >>
Time Temp. Humidity Pressure Rain* Wind** Luminosity Snow
1788696345 17.78° C 53% 1021.9 hPa 0 mm - 0 W/m² -
1788696043 17.78° C 53% 1022 hPa 0 mm - 0 W/m² -
1788695743 17.78° C 54% 1022 hPa 0 mm - 0 W/m² -
1788695438 17.78° C 53% 1021.9 hPa 0 mm - 0 W/m² -
1788695138 17.78° C 54% 1022.3 hPa 0 mm - 0 W/m² -
1788694834 18.33° C 52% 1021.9 hPa 0 mm - 0 W/m² -
1788694532 18.89° C 48% 1022.2 hPa 0 mm - 0 W/m² -
1788694231 18.89° C 49% 1022.2 hPa 0 mm - 0 W/m² -
1788693923 18.89° C 49% 1022.2 hPa 0 mm - 0 W/m² -
1788693619 18.33° C 50% 1021.9 hPa 0 mm - 0 W/m² -
1788693318 17.78° C 53% 1022.3 hPa 0 mm - 0 W/m² -
1788693014 17.78° C 53% 1022 hPa 0 mm - 0 W/m² -
1788692709 17.78° C 54% 1022.2 hPa 0 mm - 0 W/m² -
1788692408 17.78° C 54% 1022.2 hPa 0 mm - 0 W/m² -
1788692103 17.78° C 53% 1022.2 hPa 0 mm - 0 W/m² -
1788691799 17.78° C 53% 1022.2 hPa 0 mm - 0 W/m² -
1788691497 17.78° C 54% 1022.3 hPa 0 mm - 0 W/m² -
1788691197 17.78° C 54% 1022.4 hPa 0 mm - 0 W/m² -
1788690895 18.33° C 52% 1022.2 hPa 0 mm - 0 W/m² -
1788690590 18.33° C 51% 1022.2 hPa 0 mm - 0 W/m² -
1788690285 18.33° C 51% 1022.2 hPa 0 mm - 0 W/m² -
1788689985 18.89° C 50% 1022 hPa 0 mm - 0 W/m² -
1788689680 18.89° C 51% 1022 hPa 0 mm - 0 W/m² -
1788689375 18.33° C 51% 1022.3 hPa 0 mm - 0 W/m² -
1788689075 18.33° C 52% 1022.2 hPa 0 mm - 0 W/m² -

* Rain latest hour (hover to see other rain measurements)
** Current wind speed in m/s (hover to see current wind gust speed)